This is the latest recevied weather packets stored in our database for station/object WA1OUI. If no packets are shown the sender has not sent any weather packets the latest 10 day(s).
| Time | Temp. | Humidity | Pressure | Rain* | Wind** | Luminosity | Snow |
|---|---|---|---|---|---|---|---|
| 1777856055 | 7.22° C | 53% | 1008.8 hPa | 0 mm | - | 0 W/m² | - |
| 1777855753 | 7.22° C | 56% | 1008.6 hPa | 0 mm | - | 0 W/m² | - |
| 1777855451 | 7.78° C | 51% | 1008.5 hPa | 0 mm | - | 0 W/m² | - |
| 1777855147 | 7.78° C | 50% | 1008.5 hPa | 0 mm | - | 0 W/m² | - |
| 1777854844 | 7.78° C | 49% | 1008.3 hPa | 0 mm | - | 0 W/m² | - |
| 1777854540 | 7.78° C | 48% | 1008.3 hPa | 0 mm | - | 0 W/m² | - |
| 1777854237 | 8.33° C | 47% | 1008.2 hPa | 0 mm | - | 0 W/m² | - |
| 1777853935 | 8.89° C | 50% | 1008.1 hPa | 0 mm | - | 0 W/m² | - |
| 1777853632 | 8.89° C | 48% | 1008 hPa | 0 mm | - | 0 W/m² | - |
| 1777853328 | 8.89° C | 49% | 1007.9 hPa | 0 mm | - | 0 W/m² | - |
| 1777853026 | 9.44° C | 47% | 1008 hPa | 0 mm | - | 0 W/m² | - |
| 1777852723 | 9.44° C | 44% | 1007.9 hPa | 0 mm | - | 1 W/m² | - |
| 1777852421 | 10° C | 38% | 1007.7 hPa | 0 mm | - | 2 W/m² | - |
| 1777852118 | 10° C | 40% | 1007.6 hPa | 0 mm | - | 3 W/m² | - |
| 1777851816 | 10.56° C | 38% | 1007.8 hPa | 0 mm | - | 4 W/m² | - |
| 1777851513 | 10.56° C | 39% | 1007.6 hPa | 0 mm | - | 5 W/m² | - |
| 1777851209 | 10.56° C | 38% | 1007.6 hPa | 0 mm | - | 7 W/m² | - |
| 1777850906 | 10.56° C | 38% | 1007.6 hPa | 0 mm | - | 8 W/m² | - |
| 1777850603 | 10.56° C | 40% | 1007.4 hPa | 0 mm | - | 10 W/m² | - |
| 1777850301 | 11.11° C | 38% | 1007.6 hPa | 0 mm | - | 11 W/m² | - |
| 1777849998 | 11.11° C | 39% | 1007.4 hPa | 0 mm | - | 12 W/m² | - |
| 1777849694 | 11.11° C | 37% | 1007.3 hPa | 0 mm | - | 14 W/m² | - |
| 1777849391 | 11.11° C | 38% | 1007.5 hPa | 0 mm | - | 15 W/m² | - |
| 1777849089 | 11.11° C | 37% | 1007.3 hPa | 0 mm | - | 16 W/m² | - |
| 1777848784 | 11.67° C | 38% | 1007.2 hPa | 0 mm | - | 17 W/m² | - |
* Rain latest hour (hover to see other rain measurements)
** Current wind speed in m/s (hover to see current wind gust speed)